TimeGMT,TemperatureF,Dew PointF,Humidity,Sea Level PressureIn,VisibilityMPH,Wind Direction,Wind SpeedMPH,Gust SpeedMPH,PrecipitationIn,Events,Conditions,WindDirDegrees,DateUTC
12:30 AM,32.0,30.2,93,30.06,2.5,SE,3.5,-,N/A,,Partly Cloudy,130,2013-02-20 00:30:00
1:00 AM,32.0,32.0,100,30.06,2.5,ESE,3.5,-,N/A,Fog,Patches of Fog,120,2013-02-20 01:00:00
1:30 AM,32.0,30.2,93,30.06,2.5,North,2.3,-,N/A,Fog,Patches of Fog,10,2013-02-20 01:30:00
2:00 AM,30.2,30.2,100,30.06,2.2,ENE,3.5,-,N/A,Fog,Patches of Fog,70,2013-02-20 02:00:00
2:30 AM,32.0,30.2,93,30.06,0.4,NE,4.6,-,N/A,Fog,Fog,40,2013-02-20 02:30:00
3:00 AM,32.0,30.2,93,30.06,2.2,Variable,3.5,-,N/A,Fog,Patches of Fog,0,2013-02-20 03:00:00
3:30 AM,30.2,28.4,93,30.04,0.2,NE,5.8,-,N/A,Fog,Fog,40,2013-02-20 03:30:00
4:00 AM,30.2,30.2,100,30.04,0.2,East,6.9,-,N/A,Fog,Light Freezing Fog,90,2013-02-20 04:00:00
4:30 AM,35.6,35.6,100,30.04,0.9,ESE,6.9,-,N/A,Fog,Patches of Fog,120,2013-02-20 04:30:00
5:00 AM,37.4,35.6,93,30.04,1.2,Variable,2.3,-,N/A,Fog,Patches of Fog,0,2013-02-20 05:00:00
5:30 AM,37.4,35.6,93,30.06,2.2,ESE,8.1,-,N/A,,Mostly Cloudy,110,2013-02-20 05:30:00
6:00 AM,37,36,95,30.08,2,SW,4.5,,,,Mist,220,2013-02-20 06:00:00
6:00 AM,37.4,35.6,93,30.06,2.5,SSW,4.6,-,N/A,,Scattered Clouds,200,2013-02-20 06:00:00
6:30 AM,37.4,35.6,93,30.06,2.5,Variable,3.5,-,N/A,,Scattered Clouds,0,2013-02-20 06:30:00
7:00 AM,37.4,37.4,100,30.06,2.5,SE,5.8,-,N/A,,Partly Cloudy,130,2013-02-20 07:00:00
7:30 AM,39.2,37.4,93,30.06,2.2,ESE,10.4,-,N/A,,Scattered Clouds,120,2013-02-20 07:30:00
8:00 AM,39.2,37.4,93,30.06,2.2,SE,11.5,-,N/A,,Scattered Clouds,130,2013-02-20 08:00:00
8:30 AM,41.0,37.4,87,30.06,2.5,SE,11.5,-,N/A,,Scattered Clouds,130,2013-02-20 08:30:00
9:00 AM,41.0,37.4,87,30.09,2.8,SE,13.8,-,N/A,,Scattered Clouds,140,2013-02-20 09:00:00
9:30 AM,42.8,37.4,81,30.09,3.1,SE,16.1,-,N/A,,Mostly Cloudy,140,2013-02-20 09:30:00
10:00 AM,42.8,37.4,81,30.09,3.1,SE,16.1,-,N/A,,Mostly Cloudy,130,2013-02-20 10:00:00
10:30 AM,42.8,37.4,81,30.09,3.7,SE,17.3,-,N/A,,Mostly Cloudy,130,2013-02-20 10:30:00
11:00 AM,44.6,37.4,76,30.09,3.7,SE,23.0,-,N/A,,Mostly Cloudy,130,2013-02-20 11:00:00
11:30 AM,44.6,37.4,76,30.09,3.7,SE,20.7,-,N/A,,Mostly Cloudy,130,2013-02-20 11:30:00
12:00 PM,44,37,69,30.13,4,SE,20.1,,,,Mist,140,2013-02-20 12:00:00
12:00 PM,44.6,35.6,71,30.12,4.3,SE,19.6,-,N/A,,Mostly Cloudy,130,2013-02-20 12:00:00
12:30 PM,42.8,35.6,76,30.12,4.3,SE,19.6,-,N/A,,Mostly Cloudy,140,2013-02-20 12:30:00
1:00 PM,44.6,35.6,71,30.12,5.0,SE,20.7,-,N/A,,Scattered Clouds,140,2013-02-20 13:00:00
1:30 PM,42.8,35.6,76,30.12,6.2,SE,20.7,-,N/A,,Scattered Clouds,140,2013-02-20 13:30:00
2:00 PM,42.8,35.6,76,30.12,6.2,SE,19.6,-,N/A,,Mostly Cloudy,140,2013-02-20 14:00:00
2:30 PM,42.8,35.6,76,30.12,6.2,SE,20.7,-,N/A,,Mostly Cloudy,140,2013-02-20 14:30:00
3:00 PM,42.8,35.6,76,30.12,6.2,SE,19.6,-,N/A,,Mostly Cloudy,140,2013-02-20 15:00:00
3:30 PM,42.8,35.6,76,30.12,6.2,SE,19.6,-,N/A,,Mostly Cloudy,140,2013-02-20 15:30:00
4:00 PM,41.0,33.8,76,30.09,6.2,SE,19.6,-,N/A,,Mostly Cloudy,140,2013-02-20 16:00:00
4:30 PM,41.0,33.8,76,30.09,6.2,SE,19.6,-,N/A,,Mostly Cloudy,130,2013-02-20 16:30:00
5:00 PM,41.0,33.8,76,30.09,6.2,SE,19.6,-,N/A,,Mostly Cloudy,130,2013-02-20 17:00:00
5:30 PM,41.0,33.8,76,30.09,6.2,SE,18.4,-,N/A,,Mostly Cloudy,130,2013-02-20 17:30:00
6:00 PM,41.0,33.8,76,30.09,6.2,SE,20.7,-,N/A,,Mostly Cloudy,130,2013-02-20 18:00:00
6:30 PM,42.8,33.8,70,30.09,6.2,SE,19.6,-,N/A,,Mostly Cloudy,130,2013-02-20 18:30:00
7:00 PM,42.8,33.8,70,30.12,6.2,SE,20.7,-,N/A,,Mostly Cloudy,130,2013-02-20 19:00:00
7:30 PM,42.8,35.6,76,30.12,6.2,ESE,19.6,-,N/A,,Mostly Cloudy,120,2013-02-20 19:30:00
8:00 PM,42.8,35.6,76,30.12,6.2,ESE,19.6,-,N/A,,Mostly Cloudy,120,2013-02-20 20:00:00
8:30 PM,41.0,35.6,81,30.12,6.2,ESE,20.7,-,N/A,,Mostly Cloudy,120,2013-02-20 20:30:00
9:00 PM,41.0,33.8,76,30.12,6.2,ESE,18.4,-,N/A,,Mostly Cloudy,120,2013-02-20 21:00:00
9:30 PM,41.0,33.8,76,30.12,6.2,SE,20.7,-,N/A,,Mostly Cloudy,130,2013-02-20 21:30:00
10:00 PM,41.0,32.0,70,30.15,6.2,SE,18.4,-,N/A,,Mostly Cloudy,130,2013-02-20 22:00:00
10:30 PM,39.2,32.0,75,30.15,6.2,SE,20.7,-,N/A,,Mostly Cloudy,130,2013-02-20 22:30:00
11:00 PM,39.2,32.0,75,30.15,6.2,ESE,17.3,-,N/A,,Mostly Cloudy,120,2013-02-20 23:00:00
11:30 PM,39.2,32.0,75,30.15,6.2,SE,18.4,-,N/A,,Mostly Cloudy,130,2013-02-20 23:30:00